070  
ASUS44 KHUN 251310  
RWRHUN  
 
WEATHER ROUNDUP FOR THE TENNESSEE VALLEY  
NATIONAL WEATHER SERVICE HUNTSVILLE AL  
800 AM CDT SAT MAR 25 2017  
 
ALZ001>004-251400-  
NORTHWEST ALABAMA  
 
CITY SKY/WX TMP DP RH WIND PRES REMARKS
 
SHOALS AIRPORT CLOUDY 65 50 58 S15G23 30.11R  

 
 
ALZ005>007-016-251400-  
NORTH CENTRAL ALABAMA  
 
CITY SKY/WX TMP DP RH WIND PRES REMARKS
 
DECATUR AP CLOUDY 63 53 70 SE18G26 30.14R  
HUNTSVILLE AP CLOUDY 66 53 63 SE21 30.13S  
MERIDIANVILLE CLOUDY 63 48 59 SE13G22 30.15S  
REDSTONE ARSN CLOUDY 64 53 67 S12G22 30.13S  
VINEMONT AP FAIR 61 51 70 SE10G17 30.18S  

 
 
ALZ008>010-251400-  
NORTHEAST ALABAMA  
 
CITY SKY/WX TMP DP RH WIND PRES REMARKS
 
ALBERTVILLE MOSUNNY 59 55 88 SE8 30.19S  
FORT PAYNE CLOUDY 59 46 63 CALM 30.22R  
SCOTTSBORO AP CLOUDY 63 50 63 S9G17 30.21R  
SCOTTSBORO HCN N/A 63 N/A N/A MISG N/A  
VALLEY HEAD N/A 59 N/A N/A MISG N/A  

 
 
TNZ076-096-097-251400-  
SOUTHEASTERN MIDDLE TENNESSEE  
 
CITY SKY/WX TMP DP RH WIND PRES REMARKS
 
TULLAHOMA SUNNY 61 46 59 S12 30.16R  
WINCHESTER SUNNY 61 48 63 SE13 30.17S  

 
   
..SURROUNDING SITES
 
 
 
CITY SKY/WX TMP DP RH WIND PRES REMARKS
 
ATLANTA CLOUDY 58 52 80 SE7 30.29S  
ANNISTON SUNNY 63 54 72 SE8 30.24R  
BIRMINGHAM CLOUDY 64 54 69 SE9G24 30.20R  
CHATTANOOGA PTSUNNY 62 50 64 S9 30.24R  
DALTON CLOUDY 57 52 82 CALM 30.26R  
GADSDEN SUNNY 63 52 67 SE5 30.23R  
GOLDEN TRNGL PTSUNNY 63 54 72 S14 30.06R  
HALEYVILLE PTSUNNY 61 52 72 S10G21 30.15R  
JACKSON TN LGT RAIN 61 58 90 S12 29.97S  
MEMPHIS CLOUDY 60 58 92 S12 29.94R  
NASHVILLE CLOUDY 66 52 60 S16G25 30.09R  
OXFORD MS LGT RAIN 57 55 94 SE14G21 30.03R  
ROME CLOUDY 60 51 72 SE5 30.25R  
SAVANNAH MOSUNNY 66 52 59 S14G29 30.03R  
TUPELO CLOUDY 63 57 81 S14G28 30.07R  
TUSCALOOSA CLOUDY 64 52 64 SE8G17 30.15R  

 
   
..GULF COAST WEATHER
 
 
 
CITY SKY/WX TMP DP RH WIND PRES REMARKS
 
GULFPORT CLOUDY 71 67 87 SE16 30.11R  
PASCAGOULA CLOUDY 70 63 78 SE6 30.14R  
MOBILE LGT RAIN 67 63 87 SE13 30.16R  
GULF SHORES CLOUDY 68 68 99 SE9 30.17R  
PENSACOLA CLOUDY 70 65 84 SE10 30.17R  
DESTIN CLOUDY 70 67 90 SE10 30.20R  
PANAMA CITY SUNNY 64 61 88 E7 30.23R  
APPALACHICOLA CLOUDY 69 64 84 SE6 30.24R  

 
 
 
 
CLICK HERE TO GO TO PREVIOUS BULLETINS.

The Nexlab AL Page
The Nexlab TN Page Main Text Page